Kezdőlap
METAR-TAF:

METAR-TAF

Repülőterek :

Ortonville Municipal Airport (Martinson Field)

Ortonville, Minnesota, Amerikai Egyesült Államok

földrajzi szélesség: 45-18-20N, földrajzi hosszúság: 096-25-28W, magasság: 335 m

Jelenlegi meteorológiai megfigyelések

A jelentés 11 perccel ezelõtt készült, 16:15 UTC
Déli szél 12 kt széllökések: 15 kt
Hőmérséklet 28°C
Páratartalom 74%
Légköri nyomás 1012 hPa
Látótávolság: 16.1 km
Derült ég

METAR: KVVV 131615Z AUTO 17012G15KT 10SM CLR 28/23 A2987 RMK AO2

Idő: 11:26 (16:26 UTC)


TAF: hiányzik

Meteorológiai megfigyelések és előrejelzések több, mint 4000 repülőtéren (METAR és TAF jelentéseket).

A térképen piros és sárga pontok jelzik az elérhető meteorológiai állomásokat.

Mozgassa az egeret a pont fölött, hogy megjelenjen az állomás neve.

Azután kattintson az időjárási megfigyelések és előrejelzések megtekintéséhez.

A térkép megváltoztatása: kattintson a fekete keresztel jelölt zöld gombra ráközelítéshez, a vonallal jelölt zöld gombra távolításhoz, vagy a zöld nyilakra a szomszédos térképek eléréséhez.


METAR-TAF: